TimeEDT,TemperatureF,Dew PointF,Humidity,Sea Level PressureIn,VisibilityMPH,Wind Direction,Wind SpeedMPH,Gust SpeedMPH,PrecipitationIn,Events,Conditions,WindDirDegrees,DateUTC
12:56 AM,63.0,55.9,78,29.65,10.0,SSW,18.4,-,0.00,,Overcast,210,2011-10-17 04:56:00
1:56 AM,64.0,57.0,78,29.64,10.0,SW,15.0,20.7,0.00,,Overcast,220,2011-10-17 05:56:00
2:56 AM,64.0,57.9,80,29.62,10.0,WSW,12.7,19.6,0.00,,Mostly Cloudy,240,2011-10-17 06:56:00
3:56 AM,62.6,53.6,72,29.61,10.0,West,12.7,20.7,N/A,,Overcast,270,2011-10-17 07:56:00
4:56 AM,62.1,51.1,67,29.63,10.0,West,10.4,20.7,N/A,,Scattered Clouds,260,2011-10-17 08:56:00
5:56 AM,61.0,50.0,67,29.64,10.0,West,12.7,-,N/A,,Overcast,260,2011-10-17 09:56:00
6:56 AM,59.0,51.1,75,29.66,10.0,West,8.1,-,0.00,,Overcast,270,2011-10-17 10:56:00
7:56 AM,57.0,51.1,81,29.70,10.0,West,8.1,-,0.00,,Mostly Cloudy,260,2011-10-17 11:56:00
8:56 AM,57.9,51.1,78,29.73,10.0,West,8.1,-,N/A,,Partly Cloudy,280,2011-10-17 12:56:00
9:56 AM,59.0,48.0,67,29.74,10.0,West,10.4,-,N/A,,Clear,280,2011-10-17 13:56:00
10:56 AM,62.1,39.9,44,29.74,10.0,WNW,11.5,20.7,N/A,,Clear,290,2011-10-17 14:56:00
11:56 AM,64.0,37.9,38,29.73,10.0,West,9.2,20.7,N/A,,Clear,260,2011-10-17 15:56:00
12:56 PM,64.0,42.1,45,29.72,10.0,WSW,15.0,21.9,N/A,,Clear,240,2011-10-17 16:56:00
1:56 PM,64.0,41.0,43,29.70,10.0,WSW,17.3,26.5,N/A,,Clear,240,2011-10-17 17:56:00
2:56 PM,63.0,43.0,48,29.69,10.0,WSW,18.4,-,N/A,,Clear,240,2011-10-17 18:56:00
3:56 PM,63.0,39.9,43,29.69,10.0,SW,19.6,25.3,N/A,,Clear,230,2011-10-17 19:56:00
4:56 PM,63.0,37.9,40,29.69,10.0,WSW,16.1,24.2,N/A,,Clear,250,2011-10-17 20:56:00
5:56 PM,62.1,42.1,48,29.70,10.0,WSW,16.1,21.9,N/A,,Clear,240,2011-10-17 21:56:00
6:56 PM,61.0,46.0,58,29.72,10.0,SW,17.3,24.2,N/A,,Clear,220,2011-10-17 22:56:00
7:56 PM,61.0,48.9,64,29.74,10.0,SW,17.3,-,N/A,,Clear,220,2011-10-17 23:56:00
8:56 PM,62.1,48.0,60,29.76,10.0,SW,13.8,20.7,N/A,,Clear,230,2011-10-18 00:56:00
9:56 PM,61.0,48.0,62,29.77,10.0,WSW,11.5,-,N/A,,Clear,240,2011-10-18 01:56:00
10:56 PM,63.0,44.1,50,29.77,10.0,WSW,10.4,-,N/A,,Clear,250,2011-10-18 02:56:00
11:56 PM,63.0,46.0,54,29.77,10.0,WSW,11.5,17.3,N/A,,Clear,250,2011-10-18 03:56:00